Time,TemperatureF,DewpointF,PressureIn,WindDirection,WindDirectionDegrees,WindSpeedMPH,WindSpeedGustMPH,Humidity,HourlyPrecipIn,Conditions,Clouds,dailyrainin,SoftwareType,DateUTC
2013-02-16 00:08:00,36.0,16.9,29.32,North,360,0.0,0.0,46,0.00,,,0.00,WSDL version 420,2013-02-16 06:08:00,
2013-02-16 00:18:00,35.5,17.6,29.32,North,360,0.0,0.0,47,0.00,,,0.00,WSDL version 420,2013-02-16 06:18:00,
2013-02-16 00:28:00,35.8,17.6,29.32,North,360,0.0,0.0,47,0.00,,,0.00,WSDL version 420,2013-02-16 06:28:00,
2013-02-16 00:42:00,35.2,17.5,29.32,North,360,0.0,0.0,48,0.00,,,0.00,WSDL version 420,2013-02-16 06:42:00,
2013-02-16 00:47:00,35.4,17.6,29.32,North,360,0.0,0.0,48,0.00,,,0.00,WSDL version 420,2013-02-16 06:47:00,
2013-02-16 00:58:00,35.0,17.8,29.32,North,360,0.0,0.0,49,0.00,,,0.00,WSDL version 420,2013-02-16 06:58:00,
2013-02-16 01:08:00,34.6,17.4,29.32,North,360,0.0,0.0,49,0.00,,,0.00,WSDL version 420,2013-02-16 07:08:00,
2013-02-16 01:18:00,34.7,17.5,29.32,North,360,0.0,0.0,49,0.00,,,0.00,WSDL version 420,2013-02-16 07:18:00,
2013-02-16 01:28:00,34.5,17.5,29.32,North,360,0.0,0.0,49,0.00,,,0.00,WSDL version 420,2013-02-16 07:28:00,
2013-02-16 01:42:00,34.6,17.0,29.32,North,360,0.0,0.0,48,0.00,,,0.00,WSDL version 420,2013-02-16 07:42:00,
2013-02-16 01:47:00,34.7,17.0,29.32,North,360,0.0,0.0,48,0.00,,,0.00,WSDL version 420,2013-02-16 07:47:00,
2013-02-16 01:57:00,34.7,17.0,29.32,North,360,0.0,0.0,48,0.00,,,0.00,WSDL version 420,2013-02-16 07:57:00,
2013-02-16 02:08:00,34.5,16.9,29.32,North,360,0.0,0.9,48,0.00,,,0.00,WSDL version 420,2013-02-16 08:08:00,
2013-02-16 02:18:00,34.6,17.1,29.32,North,360,0.0,0.0,49,0.00,,,0.00,WSDL version 420,2013-02-16 08:18:00,
2013-02-16 02:28:00,34.0,17.3,29.32,North,360,0.0,0.0,50,0.00,,,0.00,WSDL version 420,2013-02-16 08:28:00,
2013-02-16 02:42:00,33.2,16.5,29.32,North,360,0.0,0.0,50,0.00,,,0.00,WSDL version 420,2013-02-16 08:42:00,
2013-02-16 02:47:00,33.1,16.5,29.32,North,360,0.0,0.0,50,0.00,,,0.00,WSDL version 420,2013-02-16 08:47:00,
2013-02-16 02:57:00,33.1,16.5,29.32,North,360,0.0,0.0,50,0.00,,,0.00,WSDL version 420,2013-02-16 08:57:00,
2013-02-16 03:08:00,33.1,16.5,29.32,North,360,0.0,0.0,50,0.00,,,0.00,WSDL version 420,2013-02-16 09:08:00,
2013-02-16 03:18:00,33.5,16.9,29.32,NNW,338,1.3,1.6,50,0.00,,,0.00,WSDL version 420,2013-02-16 09:18:00,
2013-02-16 03:28:00,33.8,17.2,29.32,NNW,338,1.2,2.0,50,0.00,,,0.00,WSDL version 420,2013-02-16 09:28:00,
2013-02-16 03:52:00,34.5,17.3,29.32,NNW,338,1.1,1.3,49,0.00,,,0.00,WSDL version 420,2013-02-16 09:52:00,
2013-02-16 03:57:00,34.5,17.3,29.32,NNW,338,0.0,1.3,49,0.00,,,0.00,WSDL version 420,2013-02-16 09:57:00,
2013-02-16 04:08:00,34.5,16.9,29.32,NNW,338,0.0,0.9,48,0.00,,,0.00,WSDL version 420,2013-02-16 10:08:00,
2013-02-16 04:18:00,34.0,16.9,29.32,NNW,338,0.0,0.0,49,0.00,,,0.00,WSDL version 420,2013-02-16 10:18:00,
2013-02-16 04:28:00,33.8,16.7,29.32,NNW,338,0.0,0.0,49,0.00,,,0.00,WSDL version 420,2013-02-16 10:28:00,
2013-02-16 04:42:00,33.1,16.5,29.32,NNW,338,0.0,0.0,50,0.00,,,0.00,WSDL version 420,2013-02-16 10:42:00,
2013-02-16 04:47:00,33.0,16.4,29.32,NNW,338,0.0,0.0,50,0.00,,,0.00,WSDL version 420,2013-02-16 10:47:00,
2013-02-16 04:57:00,32.6,16.5,29.32,NNW,338,0.0,0.0,51,0.00,,,0.00,WSDL version 420,2013-02-16 10:57:00,
2013-02-16 05:08:00,32.5,15.9,29.32,NNW,338,0.0,0.0,50,0.00,,,0.00,WSDL version 420,2013-02-16 11:08:00,
2013-02-16 05:18:00,32.3,16.1,29.32,NNW,338,0.0,0.0,51,0.00,,,0.00,WSDL version 420,2013-02-16 11:18:00,
2013-02-16 05:28:00,31.6,17.3,29.32,NNW,338,0.0,0.0,51,0.00,,,0.00,WSDL version 420,2013-02-16 11:28:00,
2013-02-16 05:53:00,30.2,16.7,29.32,NNW,338,0.0,0.0,53,0.00,,,0.00,WSDL version 420,2013-02-16 11:53:00,
2013-02-16 05:58:00,30.2,16.8,29.32,NNW,338,0.0,0.0,53,0.00,,,0.00,WSDL version 420,2013-02-16 11:58:00,
2013-02-16 06:08:00,29.8,16.6,29.32,NNW,338,0.0,0.0,54,0.00,,,0.00,WSDL version 420,2013-02-16 12:08:00,
2013-02-16 06:18:00,29.4,16.4,29.32,NNW,338,0.0,0.0,54,0.00,,,0.00,WSDL version 420,2013-02-16 12:18:00,
2013-02-16 06:28:00,29.3,16.5,29.35,NNW,338,0.0,0.0,55,0.00,,,0.00,WSDL version 420,2013-02-16 12:28:00,
2013-02-16 06:53:00,28.6,16.3,29.35,NNW,338,0.0,0.0,56,0.00,,,0.00,WSDL version 420,2013-02-16 12:53:00,
2013-02-16 06:58:00,28.6,16.4,29.35,NNW,338,0.0,0.0,56,0.00,,,0.00,WSDL version 420,2013-02-16 12:58:00,
2013-02-16 07:08:00,28.8,15.7,29.35,NNW,338,0.0,0.0,54,0.00,,,0.00,WSDL version 420,2013-02-16 13:08:00,
2013-02-16 07:18:00,29.3,16.5,29.35,NNW,338,0.0,0.0,55,0.00,,,0.00,WSDL version 420,2013-02-16 13:18:00,
2013-02-16 07:29:00,29.8,17.0,29.32,NNW,338,0.0,0.0,55,0.00,,,0.00,WSDL version 420,2013-02-16 13:29:00,
2013-02-16 08:02:00,32.8,18.3,29.35,WNW,298,0.0,1.3,55,0.00,,,0.00,WSDL version 420,2013-02-16 14:02:00,
2013-02-16 08:07:00,33.7,18.9,29.35,NNW,338,0.0,1.3,54,0.00,,,0.00,WSDL version 420,2013-02-16 14:07:00,
2013-02-16 08:17:00,36.2,20.3,29.35,WSW,248,0.0,2.0,52,0.00,,,0.00,WSDL version 420,2013-02-16 14:17:00,
2013-02-16 08:27:00,38.3,21.7,29.35,WNW,293,0.0,1.3,50,0.00,,,0.00,WSDL version 420,2013-02-16 14:27:00,
2013-02-16 08:32:00,39.3,22.3,29.35,West,278,0.0,1.6,50,0.00,,,0.00,WSDL version 420,2013-02-16 14:32:00,
2013-02-16 08:37:00,40.4,22.7,29.35,NW,315,0.9,2.0,48,0.00,,,0.00,WSDL version 420,2013-02-16 14:37:00,
2013-02-16 08:48:00,43.2,24.0,29.35,WSW,248,1.0,2.9,46,0.00,,,0.00,WSDL version 420,2013-02-16 14:48:00,
2013-02-16 08:58:00,44.9,24.3,29.38,SW,230,0.5,2.9,44,0.00,,,0.00,WSDL version 420,2013-02-16 14:58:00,
2013-02-16 09:08:00,46.7,24.6,29.38,South,190,1.1,3.4,41,0.00,,,0.00,WSDL version 420,2013-02-16 15:08:00,
2013-02-16 09:18:00,48.9,25.6,29.35,West,275,0.0,2.9,40,0.00,,,0.00,WSDL version 420,2013-02-16 15:18:00,
2013-02-16 09:29:00,51.3,27.0,29.35,SW,217,1.6,3.4,38,0.00,,,0.00,WSDL version 420,2013-02-16 15:29:00,
2013-02-16 10:02:00,54.4,28.0,29.35,WNW,287,1.9,3.1,36,0.00,,,0.00,WSDL version 420,2013-02-16 16:02:00,
2013-02-16 10:07:00,54.8,28.4,29.35,SW,235,1.2,4.7,36,0.00,,,0.00,WSDL version 420,2013-02-16 16:07:00,
2013-02-16 10:21:00,56.6,29.1,29.35,SW,222,1.6,3.6,34,0.00,,,0.00,WSDL version 420,2013-02-16 16:21:00,
2013-02-16 10:31:00,57.6,28.4,29.35,WSW,248,2.0,4.0,31,0.00,,,0.00,WSDL version 420,2013-02-16 16:31:00,
2013-02-16 10:36:00,58.2,28.5,29.35,West,281,1.5,4.0,32,0.00,,,0.00,WSDL version 420,2013-02-16 16:36:00,
2013-02-16 10:41:00,59.0,28.6,29.35,NW,313,2.2,3.8,30,0.00,,,0.00,WSDL version 420,2013-02-16 16:41:00,
2013-02-16 10:46:00,59.5,28.3,29.35,WSW,258,1.8,3.4,30,0.00,,,0.00,WSDL version 420,2013-02-16 16:46:00,
2013-02-16 10:51:00,60.1,28.6,29.35,SW,233,1.9,3.1,30,0.00,,,0.00,WSDL version 420,2013-02-16 16:51:00,
2013-02-16 10:56:00,60.7,28.7,29.35,NW,320,2.7,6.0,29,0.00,,,0.00,WSDL version 420,2013-02-16 16:56:00,
2013-02-16 11:01:00,61.3,28.8,29.35,NW,318,2.1,6.0,29,0.00,,,0.00,WSDL version 420,2013-02-16 17:01:00,
2013-02-16 11:06:00,62.2,29.3,29.35,West,275,1.8,3.8,29,0.00,,,0.00,WSDL version 420,2013-02-16 17:06:00,
2013-02-16 11:11:00,62.3,28.5,29.35,SW,236,2.4,4.0,28,0.00,,,0.00,WSDL version 420,2013-02-16 17:11:00,
2013-02-16 11:16:00,63.1,29.0,29.32,NW,318,2.9,4.7,27,0.00,,,0.00,WSDL version 420,2013-02-16 17:16:00,
2013-02-16 11:21:00,63.4,28.9,29.32,West,265,2.0,4.7,27,0.00,,,0.00,WSDL version 420,2013-02-16 17:21:00,
2013-02-16 11:26:00,64.1,29.3,29.32,NW,304,1.8,4.0,26,0.00,,,0.00,WSDL version 420,2013-02-16 17:26:00,
2013-02-16 11:31:00,64.4,28.8,29.32,NNW,328,2.5,4.7,26,0.00,,,0.00,WSDL version 420,2013-02-16 17:31:00,
2013-02-16 11:36:00,64.4,28.6,29.32,NW,309,1.9,4.7,26,0.00,,,0.00,WSDL version 420,2013-02-16 17:36:00,
2013-02-16 11:41:00,65.1,29.0,29.32,West,280,1.6,4.0,25,0.00,,,0.00,WSDL version 420,2013-02-16 17:41:00,
2013-02-16 11:46:00,65.1,28.4,29.32,NW,312,2.8,4.0,25,0.00,,,0.00,WSDL version 420,2013-02-16 17:46:00,
2013-02-16 11:51:00,65.4,28.7,29.32,NNW,335,1.7,4.0,25,0.00,,,0.00,WSDL version 420,2013-02-16 17:51:00,
2013-02-16 11:56:00,65.3,28.6,29.32,WNW,290,2.5,4.0,25,0.00,,,0.00,WSDL version 420,2013-02-16 17:56:00,
2013-02-16 12:01:00,65.3,28.6,29.32,NNW,335,2.9,4.7,25,0.00,,,0.00,WSDL version 420,2013-02-16 18:01:00,
2013-02-16 12:06:00,65.4,28.7,29.32,WNW,295,2.5,4.7,25,0.00,,,0.00,WSDL version 420,2013-02-16 18:06:00,
2013-02-16 12:11:00,64.9,28.3,29.32,WNW,295,2.2,4.7,25,0.00,,,0.00,WSDL version 420,2013-02-16 18:11:00,
2013-02-16 12:16:00,64.6,27.5,29.32,NW,310,1.8,4.7,25,0.00,,,0.00,WSDL version 420,2013-02-16 18:16:00,
2013-02-16 12:21:00,64.7,28.1,29.32,WNW,287,2.8,4.7,25,0.00,,,0.00,WSDL version 420,2013-02-16 18:21:00,
2013-02-16 12:26:00,64.4,27.8,29.32,West,265,2.1,4.9,25,0.00,,,0.00,WSDL version 420,2013-02-16 18:26:00,
2013-02-16 12:31:00,63.4,27.0,29.32,SW,230,2.2,4.9,25,0.00,,,0.00,WSDL version 420,2013-02-16 18:31:00,
2013-02-16 12:36:00,63.4,27.0,29.32,SW,219,2.6,4.3,25,0.00,,,0.00,WSDL version 420,2013-02-16 18:36:00,
2013-02-16 12:41:00,63.6,27.2,29.32,NW,313,2.2,4.3,25,0.00,,,0.00,WSDL version 420,2013-02-16 18:41:00,
2013-02-16 12:46:00,63.0,26.6,29.29,SW,214,2.5,4.0,25,0.00,,,0.00,WSDL version 420,2013-02-16 18:46:00,
2013-02-16 12:51:00,63.0,26.6,29.29,NNW,343,1.7,4.0,25,0.00,,,0.00,WSDL version 420,2013-02-16 18:51:00,
2013-02-16 12:56:00,63.2,26.8,29.29,SW,231,2.0,3.8,25,0.00,,,0.00,WSDL version 420,2013-02-16 18:56:00,
2013-02-16 13:01:00,63.4,26.9,29.29,WNW,285,2.0,3.8,25,0.00,,,0.00,WSDL version 420,2013-02-16 19:01:00,
2013-02-16 13:06:00,63.3,26.9,29.29,WSW,253,2.4,3.8,25,0.00,,,0.00,WSDL version 420,2013-02-16 19:06:00,
2013-02-16 13:11:00,63.4,27.0,29.29,NNW,343,1.9,3.6,25,0.00,,,0.00,WSDL version 420,2013-02-16 19:11:00,
2013-02-16 13:16:00,63.5,27.1,29.26,WNW,290,2.6,4.0,25,0.00,,,0.00,WSDL version 420,2013-02-16 19:16:00,
2013-02-16 13:21:00,63.3,26.9,29.26,WNW,290,2.0,4.0,25,0.00,,,0.00,WSDL version 420,2013-02-16 19:21:00,
2013-02-16 13:26:00,63.0,26.7,29.26,NW,313,2.3,4.0,25,0.00,,,0.00,WSDL version 420,2013-02-16 19:26:00,
2013-02-16 13:31:00,62.6,26.2,29.26,WSW,254,2.3,4.3,25,0.00,,,0.00,WSDL version 420,2013-02-16 19:31:00,
2013-02-16 13:36:00,63.1,26.7,29.26,WSW,248,1.5,4.3,25,0.00,,,0.00,WSDL version 420,2013-02-16 19:36:00,
2013-02-16 13:41:00,63.2,26.8,29.26,SW,220,2.6,4.0,25,0.00,,,0.00,WSDL version 420,2013-02-16 19:41:00,
2013-02-16 13:46:00,63.2,26.8,29.23,SW,217,2.3,4.9,25,0.00,,,0.00,WSDL version 420,2013-02-16 19:46:00,
2013-02-16 13:51:00,63.4,27.0,29.23,NNW,330,1.8,4.9,25,0.00,,,0.00,WSDL version 420,2013-02-16 19:51:00,
2013-02-16 13:56:00,63.9,27.4,29.23,WNW,298,2.0,3.8,25,0.00,,,0.00,WSDL version 420,2013-02-16 19:56:00,
2013-02-16 14:01:00,63.9,27.4,29.23,WNW,285,1.4,3.8,25,0.00,,,0.00,WSDL version 420,2013-02-16 20:01:00,
2013-02-16 14:06:00,64.2,27.7,29.23,NW,304,2.2,3.6,25,0.00,,,0.00,WSDL version 420,2013-02-16 20:06:00,
2013-02-16 14:11:00,63.8,27.3,29.23,WNW,303,2.6,4.7,25,0.00,,,0.00,WSDL version 420,2013-02-16 20:11:00,
2013-02-16 14:16:00,64.0,27.5,29.23,NW,320,3.0,4.7,25,0.00,,,0.00,WSDL version 420,2013-02-16 20:16:00,
2013-02-16 14:21:00,64.1,27.6,29.23,NW,321,2.7,4.0,25,0.00,,,0.00,WSDL version 420,2013-02-16 20:21:00,
2013-02-16 14:26:00,64.3,27.3,29.23,NW,313,2.4,5.4,24,0.00,,,0.00,WSDL version 420,2013-02-16 20:26:00,
2013-02-16 14:31:00,64.2,27.2,29.23,NW,323,2.2,5.4,25,0.00,,,0.00,WSDL version 420,2013-02-16 20:31:00,
2013-02-16 14:36:00,64.3,27.3,29.23,West,278,2.9,4.7,24,0.00,,,0.00,WSDL version 420,2013-02-16 20:36:00,
2013-02-16 14:41:00,64.4,26.9,29.23,West,262,2.5,4.7,24,0.00,,,0.00,WSDL version 420,2013-02-16 20:41:00,
2013-02-16 14:46:00,64.1,26.8,29.21,WNW,288,1.2,4.3,25,0.00,,,0.00,WSDL version 420,2013-02-16 20:46:00,
2013-02-16 14:51:00,64.4,26.9,29.21,West,260,2.7,4.3,24,0.00,,,0.00,WSDL version 420,2013-02-16 20:51:00,
2013-02-16 14:56:00,64.6,27.1,29.21,NW,318,1.4,3.8,24,0.00,,,0.00,WSDL version 420,2013-02-16 20:56:00,
2013-02-16 15:01:00,65.2,27.5,29.21,WSW,239,1.8,3.8,24,0.00,,,0.00,WSDL version 420,2013-02-16 21:01:00,
2013-02-16 15:06:00,64.8,27.2,29.21,West,262,2.5,4.7,24,0.00,,,0.00,WSDL version 420,2013-02-16 21:06:00,
2013-02-16 15:11:00,65.1,27.5,29.21,SW,236,1.8,4.7,24,0.00,,,0.00,WSDL version 420,2013-02-16 21:11:00,
2013-02-16 15:16:00,65.3,27.6,29.21,NW,323,1.4,3.8,24,0.00,,,0.00,WSDL version 420,2013-02-16 21:16:00,
2013-02-16 15:21:00,66.2,28.3,29.21,West,270,1.7,3.6,24,0.00,,,0.00,WSDL version 420,2013-02-16 21:21:00,
2013-02-16 15:26:00,66.4,28.2,29.21,WSW,250,2.6,3.6,24,0.00,,,0.00,WSDL version 420,2013-02-16 21:26:00,
2013-02-16 15:31:00,66.1,28.2,29.21,SSW,203,2.2,3.8,24,0.00,,,0.00,WSDL version 420,2013-02-16 21:31:00,
2013-02-16 15:36:00,66.0,28.0,29.21,WSW,250,1.4,3.8,24,0.00,,,0.00,WSDL version 420,2013-02-16 21:36:00,
2013-02-16 15:41:00,66.6,27.9,29.21,WSW,253,1.4,3.4,23,0.00,,,0.00,WSDL version 420,2013-02-16 21:41:00,
2013-02-16 15:46:00,67.3,29.2,29.18,SW,235,2.3,3.4,23,0.00,,,0.00,WSDL version 420,2013-02-16 21:46:00,
2013-02-16 15:51:00,67.5,28.4,29.18,West,278,1.5,3.4,23,0.00,,,0.00,WSDL version 420,2013-02-16 21:51:00,
2013-02-16 15:56:00,67.7,28.6,29.18,WSW,253,2.0,2.9,23,0.00,,,0.00,WSDL version 420,2013-02-16 21:56:00,
2013-02-16 16:01:00,67.8,28.7,29.21,NW,310,1.4,2.9,23,0.00,,,0.00,WSDL version 420,2013-02-16 22:01:00,
2013-02-16 16:06:00,67.9,28.7,29.21,SE,143,1.9,3.4,23,0.00,,,0.00,WSDL version 420,2013-02-16 22:06:00,
2013-02-16 16:11:00,68.2,29.0,29.21,SSW,203,1.6,3.4,23,0.00,,,0.00,WSDL version 420,2013-02-16 22:11:00,
2013-02-16 16:16:00,67.7,28.6,29.18,SSW,208,1.7,3.1,23,0.00,,,0.00,WSDL version 420,2013-02-16 22:16:00,
2013-02-16 16:21:00,67.2,28.2,29.18,SSE,168,1.4,3.1,23,0.00,,,0.00,WSDL version 420,2013-02-16 22:21:00,
2013-02-16 16:26:00,67.5,28.4,29.18,SW,235,1.3,3.8,23,0.00,,,0.00,WSDL version 420,2013-02-16 22:26:00,
2013-02-16 16:31:00,67.2,28.1,29.18,SW,215,1.5,3.8,23,0.00,,,0.00,WSDL version 420,2013-02-16 22:31:00,
2013-02-16 16:36:00,67.5,28.4,29.18,WNW,283,1.3,2.9,23,0.00,,,0.00,WSDL version 420,2013-02-16 22:36:00,
2013-02-16 16:41:00,67.7,28.6,29.18,NW,309,1.6,3.8,23,0.00,,,0.00,WSDL version 420,2013-02-16 22:41:00,
2013-02-16 16:46:00,67.2,28.2,29.18,North,5,2.0,4.3,23,0.00,,,0.00,WSDL version 420,2013-02-16 22:46:00,
2013-02-16 16:51:00,66.7,27.7,29.18,SW,222,1.4,4.3,23,0.00,,,0.00,WSDL version 420,2013-02-16 22:51:00,
2013-02-16 16:56:00,65.9,27.1,29.18,WNW,283,1.9,3.1,23,0.00,,,0.00,WSDL version 420,2013-02-16 22:56:00,
2013-02-16 17:01:00,65.5,26.7,29.18,WSW,245,1.3,3.8,23,0.00,,,0.00,WSDL version 420,2013-02-16 23:01:00,
2013-02-16 17:06:00,64.8,26.2,29.18,NNW,338,1.3,3.8,23,0.00,,,0.00,WSDL version 420,2013-02-16 23:06:00,
2013-02-16 17:11:00,64.4,26.3,29.18,NW,305,0.5,3.1,24,0.00,,,0.00,WSDL version 420,2013-02-16 23:11:00,
2013-02-16 17:16:00,63.7,26.3,29.18,SW,222,1.4,2.5,24,0.00,,,0.00,WSDL version 420,2013-02-16 23:16:00,
2013-02-16 17:21:00,63.0,25.7,29.18,West,260,0.2,2.5,24,0.00,,,0.00,WSDL version 420,2013-02-16 23:21:00,
2013-02-16 17:26:00,62.6,25.3,29.18,West,259,0.1,2.2,24,0.00,,,0.00,WSDL version 420,2013-02-16 23:26:00,
2013-02-16 17:31:00,62.1,25.1,29.18,SSW,198,0.7,2.2,25,0.00,,,0.00,WSDL version 420,2013-02-16 23:31:00,
2013-02-16 17:36:00,61.6,25.2,29.18,SSW,210,1.0,1.3,25,0.00,,,0.00,WSDL version 420,2013-02-16 23:36:00,
2013-02-16 17:41:00,61.2,25.1,29.18,SW,225,0.0,1.3,25,0.00,,,0.00,WSDL version 420,2013-02-16 23:41:00,
2013-02-16 17:46:00,60.7,24.7,29.18,WSW,248,0.0,1.3,25,0.00,,,0.00,WSDL version 420,2013-02-16 23:46:00,
2013-02-16 17:51:00,60.3,24.4,29.18,WSW,253,0.0,1.3,25,0.00,,,0.00,WSDL version 420,2013-02-16 23:51:00,
2013-02-16 17:56:00,59.9,24.0,29.18,WSW,248,0.0,1.6,25,0.00,,,0.00,WSDL version 420,2013-02-16 23:56:00,
2013-02-16 18:01:00,59.4,23.6,29.15,WSW,248,0.0,1.6,25,0.00,,,0.00,WSDL version 420,2013-02-17 00:01:00,
2013-02-16 18:06:00,58.7,23.8,29.15,WSW,248,0.0,0.0,26,0.00,,,0.00,WSDL version 420,2013-02-17 00:06:00,
2013-02-16 18:11:00,58.1,23.4,29.15,WSW,248,0.0,0.0,26,0.00,,,0.00,WSDL version 420,2013-02-17 00:11:00,
2013-02-16 18:16:00,57.6,23.0,29.18,WSW,248,0.0,0.0,26,0.00,,,0.00,WSDL version 420,2013-02-17 00:16:00,
2013-02-16 18:21:00,56.9,22.4,29.18,WSW,248,0.0,0.0,26,0.00,,,0.00,WSDL version 420,2013-02-17 00:21:00,
2013-02-16 18:26:00,56.1,21.7,29.18,WSW,248,0.0,0.0,26,0.00,,,0.00,WSDL version 420,2013-02-17 00:26:00,
2013-02-16 18:31:00,55.4,21.8,29.15,WSW,248,0.0,0.0,27,0.00,,,0.00,WSDL version 420,2013-02-17 00:31:00,
2013-02-16 18:36:00,55.1,21.7,29.15,WNW,293,0.0,0.0,27,0.00,,,0.00,WSDL version 420,2013-02-17 00:36:00,
2013-02-16 18:41:00,54.4,21.5,29.15,WNW,293,0.0,0.0,28,0.00,,,0.00,WSDL version 420,2013-02-17 00:41:00,
2013-02-16 18:46:00,53.2,21.0,29.15,WNW,293,0.0,0.0,28,0.00,,,0.00,WSDL version 420,2013-02-17 00:46:00,
2013-02-16 18:51:00,52.9,21.4,29.15,WNW,293,0.0,0.0,29,0.00,,,0.00,WSDL version 420,2013-02-17 00:51:00,
2013-02-16 18:56:00,52.7,21.4,29.15,WNW,293,0.0,0.0,29,0.00,,,0.00,WSDL version 420,2013-02-17 00:56:00,
2013-02-16 19:01:00,52.1,21.0,29.15,WNW,293,0.0,0.0,30,0.00,,,0.00,WSDL version 420,2013-02-17 01:01:00,
2013-02-16 19:06:00,51.3,21.0,29.15,WNW,293,0.0,0.0,31,0.00,,,0.00,WSDL version 420,2013-02-17 01:06:00,
2013-02-16 19:11:00,51.1,21.5,29.15,WNW,293,0.0,0.0,31,0.00,,,0.00,WSDL version 420,2013-02-17 01:11:00,
2013-02-16 19:16:00,50.5,21.2,29.15,WNW,293,0.0,0.0,31,0.00,,,0.00,WSDL version 420,2013-02-17 01:16:00,
2013-02-16 19:21:00,50.3,21.1,29.15,WNW,293,0.0,0.0,32,0.00,,,0.00,WSDL version 420,2013-02-17 01:21:00,
2013-02-16 19:26:00,49.9,21.2,29.15,WNW,293,0.0,0.0,32,0.00,,,0.00,WSDL version 420,2013-02-17 01:26:00,
2013-02-16 19:31:00,49.6,21.0,29.18,WNW,293,0.0,0.0,32,0.00,,,0.00,WSDL version 420,2013-02-17 01:31:00,
2013-02-16 19:36:00,49.3,20.8,29.18,WNW,293,0.0,0.0,33,0.00,,,0.00,WSDL version 420,2013-02-17 01:36:00,
2013-02-16 19:41:00,48.7,20.9,29.18,WNW,293,0.0,0.0,33,0.00,,,0.00,WSDL version 420,2013-02-17 01:41:00,
2013-02-16 19:46:00,48.3,20.5,29.18,WNW,293,0.0,0.0,33,0.00,,,0.00,WSDL version 420,2013-02-17 01:46:00,
2013-02-16 19:51:00,47.9,20.7,29.18,WNW,293,0.0,0.0,34,0.00,,,0.00,WSDL version 420,2013-02-17 01:51:00,
2013-02-16 19:56:00,47.5,20.7,29.18,WNW,293,0.0,0.0,35,0.00,,,0.00,WSDL version 420,2013-02-17 01:56:00,
2013-02-16 20:01:00,47.2,21.0,29.15,WNW,293,0.0,0.0,35,0.00,,,0.00,WSDL version 420,2013-02-17 02:01:00,
2013-02-16 20:06:00,46.9,21.1,29.15,WNW,293,0.0,0.0,36,0.00,,,0.00,WSDL version 420,2013-02-17 02:06:00,
2013-02-16 20:11:00,46.6,21.1,29.15,WNW,293,0.0,0.0,36,0.00,,,0.00,WSDL version 420,2013-02-17 02:11:00,
2013-02-16 20:16:00,46.3,21.2,29.15,WNW,293,0.0,0.0,37,0.00,,,0.00,WSDL version 420,2013-02-17 02:16:00,
2013-02-16 20:21:00,46.0,21.7,29.15,WNW,293,0.0,0.0,38,0.00,,,0.00,WSDL version 420,2013-02-17 02:21:00,
2013-02-16 20:26:00,45.7,21.6,29.15,WNW,293,0.0,0.0,38,0.00,,,0.00,WSDL version 420,2013-02-17 02:26:00,
2013-02-16 20:31:00,45.5,21.3,29.15,WNW,293,0.0,0.0,38,0.00,,,0.00,WSDL version 420,2013-02-17 02:31:00,
2013-02-16 20:36:00,45.2,21.1,29.15,WNW,293,0.0,0.0,38,0.00,,,0.00,WSDL version 420,2013-02-17 02:36:00,
2013-02-16 20:41:00,44.5,21.4,29.15,WNW,293,0.0,0.0,40,0.00,,,0.00,WSDL version 420,2013-02-17 02:41:00,
2013-02-16 20:46:00,43.6,20.9,29.18,WNW,293,0.0,0.0,40,0.00,,,0.00,WSDL version 420,2013-02-17 02:46:00,
2013-02-16 20:51:00,43.5,20.9,29.18,WNW,293,0.0,0.0,40,0.00,,,0.00,WSDL version 420,2013-02-17 02:51:00,
2013-02-16 20:56:00,43.5,20.8,29.18,WNW,293,0.0,0.0,40,0.00,,,0.00,WSDL version 420,2013-02-17 02:56:00,
2013-02-16 21:01:00,43.5,20.8,29.18,WNW,293,0.0,0.0,40,0.00,,,0.00,WSDL version 420,2013-02-17 03:01:00,
2013-02-16 21:06:00,43.5,20.5,29.18,WNW,293,0.0,0.0,40,0.00,,,0.00,WSDL version 420,2013-02-17 03:06:00,
2013-02-16 21:11:00,43.4,20.4,29.18,WNW,293,0.0,0.0,40,0.00,,,0.00,WSDL version 420,2013-02-17 03:11:00,
2013-02-16 21:16:00,43.0,20.3,29.18,WNW,293,0.0,0.0,40,0.00,,,0.00,WSDL version 420,2013-02-17 03:16:00,
2013-02-16 21:21:00,42.8,20.2,29.18,WNW,293,0.0,0.0,40,0.00,,,0.00,WSDL version 420,2013-02-17 03:21:00,
2013-02-16 21:26:00,42.5,19.9,29.18,WNW,293,0.0,0.0,40,0.00,,,0.00,WSDL version 420,2013-02-17 03:26:00,
2013-02-16 21:31:00,42.4,19.8,29.18,WNW,299,0.0,0.0,40,0.00,,,0.00,WSDL version 420,2013-02-17 03:31:00,
2013-02-16 21:36:00,42.1,20.0,29.18,NW,315,0.0,0.0,41,0.00,,,0.00,WSDL version 420,2013-02-17 03:36:00,
2013-02-16 21:41:00,41.8,19.8,29.18,NW,315,0.0,0.0,41,0.00,,,0.00,WSDL version 420,2013-02-17 03:41:00,
2013-02-16 21:46:00,41.5,19.6,29.18,NW,315,0.0,0.0,41,0.00,,,0.00,WSDL version 420,2013-02-17 03:46:00,
2013-02-16 21:51:00,41.5,19.6,29.18,NW,315,0.0,0.0,41,0.00,,,0.00,WSDL version 420,2013-02-17 03:51:00,
2013-02-16 22:02:00,41.7,20.3,29.18,NW,315,0.0,0.0,42,0.00,,,0.00,WSDL version 420,2013-02-17 04:02:00,
2013-02-16 22:07:00,41.6,20.2,29.18,NW,315,0.0,0.0,42,0.00,,,0.00,WSDL version 420,2013-02-17 04:07:00,
2013-02-16 22:12:00,41.5,20.4,29.18,NW,315,0.0,0.0,43,0.00,,,0.00,WSDL version 420,2013-02-17 04:12:00,
2013-02-16 22:17:00,41.5,20.1,29.18,NW,315,0.0,0.0,42,0.00,,,0.00,WSDL version 420,2013-02-17 04:17:00,
2013-02-16 22:27:00,41.5,20.1,29.18,NW,315,0.0,0.0,42,0.00,,,0.00,WSDL version 420,2013-02-17 04:27:00,
2013-02-16 22:32:00,41.1,20.1,29.15,NW,315,0.0,0.0,43,0.00,,,0.00,WSDL version 420,2013-02-17 04:32:00,
2013-02-16 22:37:00,40.9,20.2,29.15,NW,315,0.0,0.0,43,0.00,,,0.00,WSDL version 420,2013-02-17 04:37:00,
2013-02-16 22:47:00,40.8,20.5,29.15,NW,315,0.0,0.0,44,0.00,,,0.00,WSDL version 420,2013-02-17 04:47:00,
2013-02-16 22:57:00,40.6,20.4,29.15,NW,315,0.0,0.0,44,0.00,,,0.00,WSDL version 420,2013-02-17 04:57:00,
2013-02-16 23:08:00,40.6,21.0,29.15,NW,315,0.0,0.0,45,0.00,,,0.00,WSDL version 420,2013-02-17 05:08:00,
2013-02-16 23:18:00,40.8,21.4,29.15,NW,315,0.0,0.0,46,0.00,,,0.00,WSDL version 420,2013-02-17 05:18:00,
2013-02-16 23:28:00,41.8,22.0,29.15,South,180,0.0,0.9,45,0.00,,,0.00,WSDL version 420,2013-02-17 05:28:00,
2013-02-16 23:38:00,42.3,22.1,29.15,South,180,0.0,0.0,44,0.00,,,0.00,WSDL version 420,2013-02-17 05:38:00,
2013-02-16 23:50:00,41.8,21.5,29.15,South,180,0.0,0.0,44,0.00,,,0.00,WSDL version 420,2013-02-17 05:50:00,